This is the latest recevied weather packets stored in our database for station/object HARMALA. If no packets are shown the sender has not sent any weather packets the latest 10 day(s).
| Time | Temp. | Humidity | Pressure | Rain* | Wind** | Luminosity | Snow |
|---|---|---|---|---|---|---|---|
| 1777937237 | 6.11° C | 95% | 1000 hPa | 0 mm | - | - | - |
| 1777936036 | 6.67° C | 94% | 1000 hPa | 0 mm | - | - | - |
| 1777934837 | 6.67° C | 93% | 1000.2 hPa | 0 mm | - | - | - |
| 1777933636 | 6.67° C | 93% | 1000.3 hPa | 0 mm | - | - | - |
| 1777932436 | 7.22° C | 92% | 1000.3 hPa | 0 mm | - | - | - |
| 1777931236 | 7.78° C | 92% | 1000.2 hPa | 0.76 mm | - | - | - |
| 1777930036 | 7.78° C | 93% | 1000.2 hPa | 0.76 mm | - | - | - |
| 1777928836 | 7.78° C | 92% | 1000.2 hPa | 0.76 mm | - | - | - |
| 1777927635 | 7.78° C | 90% | 1000.2 hPa | 0.51 mm | - | - | - |
| 1777926436 | 7.78° C | 90% | 1000.1 hPa | 0.51 mm | - | - | - |
| 1777925236 | 8.33° C | 85% | 1000.1 hPa | 0.51 mm | - | - | - |
| 1777924035 | 7.78° C | 87% | 1000.1 hPa | 0 mm | - | - | - |
| 1777922835 | 8.33° C | 83% | 1000.1 hPa | 0 mm | - | - | - |
| 1777921636 | 8.89° C | 75% | 1000 hPa | 0 mm | - | - | - |
| 1777920435 | 8.89° C | 74% | 1000.1 hPa | 0 mm | - | - | - |
| 1777919235 | 9.44° C | 70% | 1000.2 hPa | 0 mm | - | - | - |
| 1777918035 | 9.44° C | 66% | 1000 hPa | 0 mm | - | - | - |
| 1777916835 | 9.44° C | 66% | 1000 hPa | 0 mm | - | - | - |
| 1777915635 | 10° C | 64% | 1000.1 hPa | 0 mm | - | - | - |
| 1777914435 | 10° C | 62% | 1000.1 hPa | 0 mm | - | - | - |
| 1777913235 | 10° C | 62% | 1000 hPa | 0 mm | - | - | - |
| 1777912035 | 10° C | 59% | 1000 hPa | 0 mm | - | - | - |
| 1777910835 | 10.56° C | 54% | 999.9 hPa | 0 mm | - | - | - |
| 1777909634 | 10.56° C | 60% | 1000 hPa | 0 mm | - | - | - |
| 1777908435 | 10.56° C | 62% | 1000.2 hPa | 0 mm | - | - | - |
* Rain latest hour (hover to see other rain measurements)
** Current wind speed in m/s (hover to see current wind gust speed)